Location: Chamerau
(49.1969°N, 12.7525°E)
Time: 22:28:45
(UTC+00:00)

SL-08 RB Rocket - Pass Details

Date: 18 September 2020
Orbit: 647 x 684 km, 97.8° (Epoch: 30 October)

Event Time Altitude Azimuth Distance (km) Brightness Sun altitude
Exits shadow 17:54:34 - 144° (SE) 3,028 6.7 -7.3°
Rises 17:54:36 0° 144° (SE) 3,018 6.6 -7.3°
Reaches altitude 10° 17:56:56 10° 137° (SE) 2,103 5.8 -7.6°
Maximum altitude 18:01:12 40° 68° (ENE) 993 4.2 -8.3°
Drops below altitude 10° 18:05:28 10° 360° (N) 2,096 6.4 -9.0°
Sets 18:07:47 0° 353° (N) 3,007 7.4 -9.4°
